Regional Weather Roundup
Issued by NWS

Home | Current Version | Previous Version | Graphics & Text | Print | Product List | Glossary On
Versions: 1 2 3 4 5 6 7 8 9 10 11 12 13 14 15 16 17 18 19 20 21 22 23 24 25 26 27 28 29 30 31 32 33 34 35 36 37 38 39 40 41 42 43 44 45 46 47 48 49
000
ASUS45 KSLC 300710
RWRUT

UTAH REGIONAL WEATHER ROUNDUP
NATIONAL WEATHER SERVICE SALT LAKE CITY UT
100 AM MDT TUE JUN 30 2015

UTZ001>011-023>025-300800-

NORTHERN UTAH

CITY           SKY/WX    TMP DP  RH WIND       PRES   REMARKS
BRIGHAM CITY   MOCLDY    80  50  34 NW6       30.05R
HILL AFB       PTCLDY    79  51  36 E10       30.08R
LOGAN          CLEAR     75  56  51 CALM      30.09R
OGDEN          PTCLDY    79  52  38 S8        30.04R
PROVO AIRPORT  MOCLDY    73  54  49 E8        30.07S
SALT LAKE CITY MOCLDY    84  54  35 S7        30.01S
VERNAL         MOCLDY    74  46  36 W6        30.14R
WENDOVER       MOCLDY    90  43  19 N7        30.05S
HEBER CITY     MOCLDY    64  52  63 CALM      30.18S
WEST JORDAN    CLEAR     81  46  30 CALM      30.06S

$$

UTZ012>022-026-027-300800-

SOUTHERN/CENTRAL UTAH

CITY           SKY/WX    TMP DP  RH WIND       PRES   REMARKS
BLANDING       CLEAR     73  41  31 E7        30.23S
BRYCE CANYON   PTCLDY    60  43  53 W8        30.38S
CEDAR CITY     MOCLDY    73  46  38 SE6       30.22S
DELTA          MOCLDY    79  40  24 CALM      30.08S
HANKSVILLE     PTCLDY    81  37  21 CALM      30.05R
MILFORD        PTCLDY    75  47  36 SW9       30.13R
MOAB/CYNLANDS  CLEAR     78  42  27 W6        30.02R
PRICE          PTCLDY    76  37  24 CALM      30.18R
ST GEORGE      PTSUNNY   97  45  16 E15G22    29.96S HX  93
KANAB          MOCLDY    72  54  53 NE3       30.21S

$$

REGIONAL REPORTS     COLORADO/ARIZONA

CITY           SKY/WX    TMP DP  RH WIND       PRES   REMARKS
CRAIG, CO      MOCLDY    58  47  66 CALM      30.24S
GRAND JUNCTION PTCLDY    79  43  27 SE9       30.08R
RIFLE          PTCLDY    69  45  41 CALM      30.17R
MONTROSE       CLEAR     72  45  37 S7        30.19R
CORTEZ         CLEAR     62  49  62 SE5       30.21R
PAGE, AZ       MOCLDY    87  47  24 NW5       30.06S
GRAND CANYON   MOCLDY    58  54  86 CALM      30.32S
KINGMAN        TSTM      76  61  59 SE33G46   30.14R
FLAGSTAFF      CLOUDY    63  50  62 CALM      30.33F

$$

REGIONAL REPORTS    NEVADA/IDAHO/WYOMING

CITY           SKY/WX    TMP DP  RH WIND       PRES   REMARKS
LAS VEGAS, NV  CLOUDY    99  47  17 S10       29.84R HX  95
ELY            MOCLDY    78  43  28 S12       30.25R
ELKO           CLOUDY    74  52  46 CALM      30.16R
POCATELLO, ID  CLEAR     74  59  59 NE8       30.11F
BURLEY         CLOUDY    79  52  38 N8        30.07S
EVANSTON, WY   MOCLDY    67  43  41 SE6       30.29F
ROCK SPRINGS   MOCLDY    72  39  30 SE9       30.26F
KEMMERER       MOCLDY    63  43  48 N9        30.32S

$$


USA.gov is the U.S. government's official web portal to all federal, state and local government web resources and services.